STARLINK-3162 (49411 NORAD) Tracking and Keplerian Element Data

This shows tracking and keplerian element data for the satellite.

Feedback or suggestion? Click here.




ElementValue
Catalog49411
NameSTARLINK-3162
Epoch Orbit130
Epoch Day140.58334491
Epoch Year2022
RAAN335.0657
Inclination53.2166
Eccentricity0.0001719
Argument of Perigee41.2251
Mean Anonmoly270.2649
Mean Motion15.08845398
Decay Rate7.768E-05
L11 49411U 21104D 22140.58334491 .00007768 00000+0 50555-3 0 9993
L22 49411 53.2166 335.0657 0001719 41.2251 270.2649 15.08845398 1301

Live tracking and technical data element details for STARLINK-3162 (NORAD 49411). STARLINK-3162 can be tracked NOW for your location showing map with azimuth and elevation plus other details from your city location.

Track the satellite on the map from your city or location and see movement details for azimuth, elevation, latitude, longitude, range, height, and movement on the map or in text.







IsCatalogInMostPopularTable: catalog: 49411, numindb: 25
Update: records affected: 1



GetName: 49411 STARLINK-3162

Hit Count: updated at: Sun, 22 May 2022 07:23:15 GMT